Weather History for Harlan, KY

Change the Weather History Date:

Saturday, November 5, 2011

  Actual Average (KLOZ) Record (KLOZ)
Temperature  
Mean Temperature 50 °F 51 °F  
Max Temperature 62 °F 63 °F 79 °F (1975)
Min Temperature 37 °F 40 °F 14 °F (1991)
Degree Days  
Heating Degree Days 16 14  
Month to date heating degree days 67  
Since 1 July heating degree days 373  
Cooling Degree Days 0 0  
Month to date cooling degree days 0  
Moisture  
Dew Point 33 °F    
Average Humidity 68    
Maximum Humidity 100    
Minimum Humidity 22    
Precipitation  
Precipitation 0.00 in 0.11 in 1.37 in (1988)
Month to date precipitation 0.58  
Sea Level Pressure  
Sea Level Pressure 30.24 in    
Wind  
Wind Speed 1 mph ()    
Max Wind Speed 7 mph    
Max Gust Speed -    
Visibility 5.9 miles    
Events      
T = Trace of Precipitation, MM = Missing Value Source: Averaged Metar Reports

Daily Weather History Graph

Daily Weather History Graph

Search for Another Location

Airport:

Trip Planner

Search our weather history database for the weather conditions in past years. The results will help you decide how hot, cold, wet, or windy it might be!

Date:

Astronomy

Nov. 05, 2011 Rise Set
Actual Time 8:01 AM EDT 6:32 PM EDT
Civil Twilight 7:34 AM EDT 6:59 PM EDT
Nautical Twilight 7:03 AM EDT 7:30 PM EDT
Astronomical Twilight 6:32 AM EDT 8:00 PM EDT
Moon 3:44 PM EDT (11/5) 3:16 AM EDT (11/5)
Length of Visible Light 11h 25m
Length of Day
10h 31m
Waxing Gibbous, 78% of the Moon is Illuminated
Nov 5
Waxing Gibbous
Nov 10
Full
Nov 18
Last Quarter
Nov 25
New
Dec 2
First Quarter

Hourly Weather History & Observations

Time (EDT) Temp. Windchill Dew Point Humidity Pressure Visibility Wind Dir Wind Speed Gust Speed Precip Events Conditions
12:15 AM 37.4 °F - 37.4 °F 100% 30.20 in 0.5 mi Calm Calm - N/A   Mostly Cloudy
12:55 AM 37.4 °F - 37.4 °F 100% 30.19 in 0.2 mi Calm Calm - N/A   Overcast
1:15 AM 37.4 °F - 37.4 °F 100% 30.20 in 0.2 mi Calm Calm - N/A   Overcast
1:35 AM 37.4 °F - 37.4 °F 100% 30.20 in 0.2 mi Calm Calm - N/A   Overcast
1:55 AM 37.4 °F - 37.4 °F 100% 30.20 in 0.2 mi Calm Calm - N/A   Overcast
2:15 AM 37.4 °F - 37.4 °F 100% 30.20 in 0.2 mi Calm Calm - N/A   Overcast
2:35 AM 37.4 °F - 37.4 °F 100% 30.19 in 0.2 mi Calm Calm - N/A   Overcast
2:55 AM 37.4 °F - 37.4 °F 100% 30.19 in 0.2 mi Calm Calm - N/A   Overcast
3:35 AM 39.2 °F - 37.4 °F 93% 30.19 in 0.2 mi Calm Calm - N/A   Overcast
3:55 AM 39.2 °F - 37.4 °F 93% 30.20 in 0.2 mi Calm Calm - N/A   Overcast
4:15 AM 37.4 °F - 37.4 °F 100% 30.19 in 0.2 mi Calm Calm - N/A   Overcast
4:35 AM 37.4 °F - 37.4 °F 100% 30.20 in 0.2 mi Calm Calm - N/A   Overcast
4:55 AM 37.4 °F 34.9 °F 37.4 °F 100% 30.21 in 0.2 mi ENE 3.5 mph - N/A   Overcast
5:15 AM 37.4 °F - 37.4 °F 100% 30.22 in 0.2 mi Calm Calm - N/A   Overcast
5:35 AM 37.4 °F - 37.4 °F 100% 30.22 in 0.2 mi Calm Calm - N/A   Overcast
5:55 AM 37.4 °F - 37.4 °F 100% 30.23 in 0.2 mi Calm Calm - N/A   Overcast
6:15 AM 37.4 °F - 37.4 °F 100% 30.24 in 0.2 mi Calm Calm - N/A   Overcast
6:35 AM 37.4 °F - 37.4 °F 100% 30.25 in 0.2 mi Calm Calm - N/A   Overcast
6:55 AM 37.4 °F 34.9 °F 37.4 °F 100% 30.26 in 0.2 mi NE 3.5 mph - N/A   Overcast
7:35 AM 37.4 °F - 37.4 °F 100% 30.27 in 0.2 mi Calm Calm - N/A   Overcast
7:55 AM 37.4 °F - 37.4 °F 100% 30.27 in 0.2 mi Calm Calm - N/A   Overcast
8:15 AM 37.4 °F - 37.4 °F 100% 30.27 in 0.2 mi Calm Calm - N/A   Overcast
9:15 AM 37.4 °F 34.9 °F 37.4 °F 100% 30.30 in 0.2 mi East 3.5 mph - N/A   Overcast
9:35 AM 37.4 °F - 37.4 °F 100% 30.30 in 0.2 mi Calm Calm - N/A   Overcast
9:55 AM 37.4 °F 34.9 °F 37.4 °F 100% 30.31 in 0.8 mi ENE 3.5 mph - N/A   Overcast
10:15 AM 37.4 °F 34.9 °F 37.4 °F 100% 30.31 in 2.5 mi East 3.5 mph - N/A   Overcast
10:35 AM 39.2 °F 37.0 °F 39.2 °F 100% 30.31 in 5.0 mi East 3.5 mph - N/A   Mostly Cloudy
10:55 AM 41.0 °F - 41.0 °F 100% 30.31 in 10.0 mi Calm Calm - N/A   Overcast
11:15 AM 41.0 °F - 41.0 °F 100% 30.31 in 10.0 mi Calm Calm - N/A   Scattered Clouds
11:55 AM 46.4 °F - 41.0 °F 81% 30.31 in 10.0 mi Calm Calm - N/A   Clear
12:15 PM 50.0 °F - 41.0 °F 71% 30.30 in 10.0 mi Calm Calm - N/A   Clear
12:55 PM 55.4 °F - 39.2 °F 54% 30.28 in 10.0 mi Calm Calm - N/A   Clear
1:15 PM 57.2 °F - 39.2 °F 51% 30.28 in 10.0 mi Calm Calm - N/A   Clear
1:55 PM 60.8 °F - 37.4 °F 42% 30.26 in 10.0 mi Calm Calm - N/A   Clear
2:15 PM 59.0 °F - 32.0 °F 36% 30.25 in 10.0 mi Calm Calm - N/A   Clear
2:35 PM 60.8 °F - 32.0 °F 34% 30.25 in 10.0 mi Calm Calm - N/A   Clear
2:55 PM 60.8 °F - 26.6 °F 27% 30.25 in 10.0 mi East 3.5 mph - N/A   Clear
3:15 PM 62.6 °F - 26.6 °F 26% 30.24 in 10.0 mi Calm Calm - N/A   Clear
3:35 PM 62.6 °F - 23.0 °F 22% 30.24 in 10.0 mi Calm Calm - N/A   Clear
3:55 PM 62.6 °F - 23.0 °F 22% 30.23 in 10.0 mi East 3.5 mph - N/A   Clear
4:15 PM 62.6 °F - 23.0 °F 22% 30.23 in 10.0 mi Calm Calm - N/A   Clear
4:35 PM 62.6 °F - 23.0 °F 22% 30.23 in 10.0 mi Calm Calm - N/A   Clear
4:55 PM 62.6 °F - 23.0 °F 22% 30.23 in 10.0 mi South 3.5 mph - N/A   Clear
5:15 PM 60.8 °F - 23.0 °F 23% 30.23 in 10.0 mi SSE 3.5 mph - N/A   Clear
5:35 PM 60.8 °F - 23.0 °F 23% 30.22 in 10.0 mi Calm Calm - N/A   Clear
5:55 PM 60.8 °F - 23.0 °F 23% 30.22 in 10.0 mi South 4.6 mph - N/A   Clear
6:15 PM 59.0 °F - 24.8 °F 27% 30.22 in 10.0 mi Calm Calm - N/A   Clear
6:35 PM 57.2 °F - 26.6 °F 31% 30.22 in 10.0 mi Calm Calm - N/A   Clear
6:55 PM 55.4 °F - 26.6 °F 33% 30.23 in 10.0 mi Calm Calm - N/A   Clear
7:15 PM 51.8 °F - 30.2 °F 44% 30.24 in 10.0 mi Calm Calm - N/A   Clear
7:55 PM 50.0 °F - 32.0 °F 50% 30.24 in 10.0 mi Calm Calm - N/A   Clear
8:15 PM 46.4 °F - 32.0 °F 57% 30.24 in 10.0 mi Calm Calm - N/A   Clear
8:35 PM 46.4 °F - 33.8 °F 62% 30.24 in 10.0 mi Calm Calm - N/A   Clear
8:55 PM 44.6 °F - 33.8 °F 66% 30.24 in 10.0 mi Calm Calm - N/A   Clear
9:15 PM 42.8 °F - 33.8 °F 70% 30.24 in 10.0 mi Calm Calm - N/A   Clear
9:35 PM 44.6 °F - 32.0 °F 61% 30.25 in 10.0 mi Calm Calm - N/A   Clear
9:55 PM 48.2 °F - 32.0 °F 54% 30.25 in 10.0 mi East 4.6 mph - N/A   Clear
10:15 PM 50.0 °F - 30.2 °F 47% 30.25 in 10.0 mi ESE 5.8 mph - N/A   Clear
10:35 PM 50.0 °F - 30.2 °F 47% 30.25 in 10.0 mi East 4.6 mph - N/A   Clear
10:55 PM 50.0 °F - 26.6 °F 40% 30.25 in 10.0 mi ESE 6.9 mph - N/A   Clear
11:15 PM 51.8 °F - 21.2 °F 30% 30.26 in 10.0 mi ESE 3.5 mph - N/A   Clear
11:35 PM 51.8 °F - 21.2 °F 30% 30.25 in 10.0 mi East 6.9 mph - N/A   Clear
11:55 PM 51.8 °F - 21.2 °F 30% 30.26 in 10.0 mi East 3.5 mph - N/A   Clear